Home   Weather   Yakima   Past weeks
Flag for USA

Past Weather in Yakima, Washington, USA — Yesterday and Last 2 Weeks

Now
54 °F

Clear.


Feels Like: 53 °F
Forecast: 76 / 48 °F
Wind: 6 mph from West

Location: Yakima Air Terminal

Current Time: Jun 24, 2019 at 4:26:31 am

Latest Report: Jun 24, 2019 at 3:53 am


Visibility: 10 mi

Pressure: 29.99 "Hg

Humidity: 55%

Dew Point: 38 °F

Location of YakimaLocation

Past Weather in Yakima — Graph

°F

Yakima Temperature Yesterday

Maximum temperature yesterday: 78 °F (at 2:53 pm)
Minimum temperature yesterday: 49 °F (at 5:53 am)
Average temperature yesterday: 66 °F

High & Low Weather Summary for the Past Weeks

 TemperatureHumidityPressure
High96 °F (Jun 13, 3:53 pm)80% (Jun 9, 3:53 am)30.39 "Hg (Jun 9, 3:53 am)
Low39 °F (Jun 9, 4:53 am)14% (Jun 14, 4:53 pm)29.69 "Hg (Jun 13, 4:53 pm)
Average71 °F39%29.99 "Hg
* Reported Jun 9 2:53 am — Jun 24 2:53 am, Yakima. Weather by CustomWeather, © 2019

Note: Actual official high and low records may vary slightly from our data, if they occured in-between our weather recording intervals... More about our weather records

Advertising

Yakima Weather History for the Previous 24 Hours

Scroll right to see more
 ConditionsComfort  
Time TempWeatherWind HumidityBarometerVisibility
2:53 am
Mon, Jun 24
57 °FClear.14 mph49%29.97 "Hg10 mi
1:53 am58 °FClear.9 mph47%29.96 "Hg10 mi
12:53 am59 °FClear.8 mph46%29.96 "Hg10 mi
11:53 pm
Sun, Jun 23
60 °FClear.8 mph44%29.97 "Hg10 mi
10:53 pm62 °FClear.13 mph41%29.98 "Hg10 mi
9:53 pm61 °FClear.9 mph44%29.98 "Hg10 mi
8:53 pm62 °FSunny.8 mph44%29.98 "Hg10 mi
7:53 pm64 °FSunny.9 mph41%29.99 "Hg10 mi
6:53 pm68 °FSunny.21 mph35%29.98 "Hg10 mi
5:53 pm71 °FSunny.18 mph35%29.98 "Hg10 mi
4:53 pm76 °FPassing clouds.16 mph29%29.96 "Hg10 mi
3:53 pm78 °FPassing clouds.15 mph25%29.96 "Hg10 mi
2:53 pm78 °FSunny.15 mph27%29.96 "Hg10 mi
1:53 pm76 °FScattered clouds.8 mph29%29.98 "Hg10 mi
12:53 pm75 °FScattered clouds.17 mph31%30.00 "Hg10 mi
11:53 am75 °FScattered clouds.10 mph32%30.01 "Hg10 mi
10:53 am73 °FScattered clouds.8 mph36%30.01 "Hg10 mi
9:53 am71 °FScattered clouds.14 mph38%30.02 "Hg10 mi
8:53 am69 °FPassing clouds.9 mph39%30.03 "Hg10 mi
7:53 am67 °FPassing clouds.13 mph42%30.02 "Hg10 mi
6:53 am59 °FPassing clouds.7 mph58%30.03 "Hg10 mi
5:53 am49 °FPassing clouds.9 mph77%30.03 "Hg10 mi
4:53 am53 °FClear.5 mph69%30.03 "Hg10 mi
Weather by CustomWeather, © 2019

See weather overview